EW1975 Weather Reports


time (UTC)temp
C
wind
direction
speed
KPH
gust
KPH
rain 1hr
cm
rain 24hr
cm
rain mn
cm
humidity
%
barometer
mb
20260906123104 21 156 0.0 0.0 0.00 0.36 0.00 18 1011.2
20260906121529 20 156 0.0 0.0 0.00 0.36 0.00 19 1011.0
20260906120028 20 157 0.0 0.0 0.00 0.36 0.00 20 1010.9
20260906114525 -17 0.0 0.0 0.00 0.36 0.00 1010.7
20260906113021 -17 0.0 0.0 0.00 0.36 0.00 1010.7
20260906111525 -17 0.0 0.0 0.00 0.36 0.00 1010.5
20260906110011 -17 0.0 0.0 0.00 0.36 0.00 1010.6
20260906104507 -17 0.0 0.0 0.00 0.36 0.00 1010.6
20260906103002 -17 0.0 0.0 0.00 0.36 0.00 1010.5
20260906101559 -17 0.0 0.0 0.00 0.36 0.00 1010.3
20260906100057 -17 0.0 0.0 0.00 0.36 0.00 1010.5
20260906094602 -17 0.0 0.0 0.00 0.36 0.00 1010.5
20260906093049 20 157 0.0 0.0 0.00 0.36 0.00 20 1010.2
20260906091600 20 156 0.0 0.0 0.00 0.36 0.00 21 1010.1
20260906090045 20 156 0.0 0.0 0.00 0.36 0.00 21 1010.1
20260906084544 20 156 0.0 0.0 0.00 0.36 0.00 21 1010.0
20260906083043 20 156 0.0 0.0 0.00 0.36 0.00 20 1009.9
20260906081544 20 155 0.0 0.0 0.00 0.36 0.00 21 1009.8
20260906080043 20 156 0.0 0.0 0.00 0.36 0.00 21 1009.9
20260906074547 20 156 0.0 0.0 0.00 0.36 0.00 21 1010.0
20260906073040 20 156 0.0 0.0 0.00 0.36 0.00 21 1009.9
20260906071539 20 155 0.0 0.0 0.00 0.36 0.00 21 1009.9
20260906070039 20 156 0.0 0.0 0.00 0.36 0.00 21 1009.8
20260906064537 20 156 0.0 0.0 0.00 0.36 0.00 22 1010.0
20260906063037 20 156 0.0 0.0 0.00 0.36 0.00 22 1010.1
20260906061535 20 156 0.0 0.0 0.00 0.36 0.00 22 1010.1
20260906060032 21 156 0.0 0.0 0.00 0.36 0.00 23 1010.4
20260906054539 21 156 0.0 0.0 0.00 0.36 0.00 23 1010.6
20260906053028 21 155 0.0 0.0 0.00 0.36 0.00 23 1010.8
20260906051528 21 155 0.0 0.0 0.00 0.36 0.00 23 1010.9
20260906050024 21 155 0.0 0.0 0.00 0.36 0.00 24 1010.9
20260906044524 21 155 0.0 0.0 0.00 0.36 0.36 24 1010.7
20260906043030 21 156 0.0 0.0 0.00 0.36 0.36 25 1010.9
20260906041522 21 156 0.0 0.0 0.00 0.36 0.36 25 1011.0
20260906040022 21 155 0.0 0.0 0.00 0.36 0.36 26 1011.3
20260906034521 21 155 0.0 0.0 0.00 0.36 0.36 27 1011.2
20260906033025 21 153 0.0 0.0 0.00 0.36 0.36 28 1011.2
20260906031520 21 117 0.0 0.0 0.00 0.36 0.36 30 1011.3
20260906030022 21 117 0.0 0.0 0.00 0.36 0.36 32 1011.3
20260906024518 21 117 0.0 0.0 0.00 0.36 0.36 34 1011.0
20260906023017 21 117 0.0 8.0 0.00 0.36 0.36 36 1011.1
20260906021518 21 65 0.0 1.6 0.20 0.36 0.36 43 1010.6
20260906020016 21 59 6.4 11.3 0.36 0.36 0.36 59 1010.3
20260906014515 22 217 3.2 4.8 0.36 0.36 0.36 70 1009.9
20260906013023 22 216 4.8 12.9 0.36 0.36 0.36 75 1010.0
20260906011513 22 248 8.0 16.1 0.13 0.13 0.13 77 1010.1
20260906010010 23 55 14.5 45.1 0.00 0.00 0.00 77 1010.5
20260906004510 27 30 8.0 45.1 0.00 0.00 0.00 63 1009.9
20260906003009 29 205 0.0 11.3 0.00 0.00 0.00 74 1008.7
20260906001516 29 219 0.0 3.2 0.00 0.00 0.00 75 1008.4
20260906000026 30 226 0.0 4.8 0.00 0.00 0.00 75 1008.7
20260905234508 30 219 0.0 0.0 0.00 0.00 0.00 74 1008.7
20260905233007 31 223 0.0 0.0 0.00 0.00 0.00 73 1008.8
20260905231607 31 224 0.0 0.0 0.00 0.00 0.00 73 1008.6
20260905230005 31 221 0.0 8.0 0.00 0.00 0.00 72 1008.6
20260905224503 31 223 8.0 12.9 0.00 0.00 0.00 70 1008.5
20260905223006 32 237 11.3 16.1 0.00 0.00 0.00 67 1008.5
20260905221501 33 231 4.8 14.5 0.00 0.00 0.00 67 1008.5
20260905214603 33 253 11.3 19.3 0.00 0.00 0.00 66 1008.4
20260905213100 33 242 14.5 22.5 0.00 0.00 0.00 66 1008.4
20260905211600 33 209 6.4 19.3 0.00 0.00 0.00 66 1008.5
20260905210115 35 127 3.2 8.0 0.00 0.00 0.00 55 1008.2
20260905204558 36 20 3.2 9.7 0.00 0.00 0.00 49 1008.6
20260905203049 35 261 0.0 11.3 0.00 0.00 0.00 52 1008.6
20260905201546 35 80 0.0 3.2 0.00 0.00 0.00 52 1008.9
20260905200044 35 56 8.0 14.5 0.00 0.00 0.00 51 1009.1
20260905194542 35 360 0.0 4.8 0.00 0.00 0.00 51 1009.3
20260905193039 35 54 3.2 14.5 0.00 0.00 0.00 53 1009.4
20260905191537 34 59 0.0 11.3 0.00 0.00 0.00 52 1009.7
20260905190137 35 30 8.0 14.5 0.00 0.00 0.00 52 1009.8
20260905184550 35 157 3.2 14.5 0.00 0.00 0.00 55 1010.2
20260905183040 33 186 0.0 6.4 0.00 0.00 0.00 58 1010.4
20260905181525 33 54 4.8 11.3 0.00 0.00 0.00 55 1010.6
20260905180029 33 116 0.0 11.3 0.00 0.00 0.00 58 1010.6
20260905174521 33 42 6.4 17.7 0.00 0.00 0.00 56 1010.9
20260905173018 33 65 6.4 17.7 0.00 0.00 0.00 57 1011.1
20260905171516 33 340 4.8 12.9 0.00 0.00 0.00 58 1011.4
20260905170014 32 82 9.7 14.5 0.00 0.00 0.00 58 1011.6
20260905164513 32 40 0.0 17.7 0.00 0.00 0.00 61 1011.9
20260905163009 32 331 4.8 16.1 0.00 0.00 0.00 61 1012.0
20260905161507 32 62 8.0 12.9 0.00 0.00 0.00 63 1012.1
20260905160003 31 63 6.4 12.9 0.00 0.00 0.00 67 1012.0
20260905154502 31 36 11.3 19.3 0.00 0.00 0.00 66 1012.0
20260905153113 31 84 6.4 12.9 0.00 0.00 0.00 68 1012.0
20260905151603 31 9 1.6 12.9 0.00 0.00 0.00 67 1012.2
20260905150054 30 20 4.8 11.3 0.00 0.00 0.00 67 1012.3
20260905144551 29 52 0.0 12.9 0.00 0.00 0.00 67 1012.4
20260905143046 28 77 0.0 0.0 0.00 0.00 0.00 64 1012.5
20260905141543 27 72 0.0 0.0 0.00 0.00 0.00 60 1012.6
20260905140041 27 119 0.0 0.0 0.00 0.00 0.00 51 1012.7
20260905134533 25 121 0.0 0.0 0.00 0.00 0.00 36 1012.8
20260905133039 24 122 0.0 0.0 0.00 0.00 0.00 19 1012.9
20260905131524 23 122 0.0 0.0 0.00 0.00 0.00 14 1013.0
20260905130022 22 123 0.0 0.0 0.00 0.00 0.00 16 1012.9
20260905124522 21 123 0.0 0.0 0.00 0.00 0.00 18 1012.9